Date String (YYYY-MM-DD hh:mm:ss) UTC,Instrument flags,Ambient pressure (hPa),Sample flow (lpm),Bypass flow (lpm),Sample temperature (°C),Ambient temperature (°C),ASC tube jacket temperature (°C),LED temperature (°C),Box temperature (°C),Sample RH (%),Span deviation,Mass concentration (μg/m³),Mass concentration (μg/m³),Mass concentration (μg/m³)
DateTimeUTC,F1_M11,P_M11,Q1_M11,Q2_M11,T1_M11,T2_M11,T3_M11,T4_M11,T5_M11,U1_M11,ZSPAN_M11,X2_M11,X0_M11,X1_M11
2022-02-02 14:00:00,,0825.2,4.99,0.00,22.1,22.0,00.0,31.1,23.8,06.1,0000.0,0001.35,0002.90,0000.91
2022-02-02 14:01:00,,0825.3,5.01,0.00,22.0,21.7,00.0,31.1,23.6,06.1,0000.0,0001.36,0002.85,0000.92
2022-02-02 14:02:00,,0825.3,5.00,0.00,22.0,21.3,00.0,31.1,23.5,06.1,0000.0,0001.39,0002.69,0000.93
2022-02-02 14:03:00,,0825.2,4.99,0.00,21.9,21.1,00.0,31.0,23.4,06.2,0000.0,0001.39,0002.97,0000.93
2022-02-02 14:04:00,,0825.3,4.98,0.00,21.8,21.0,00.0,31.0,23.3,06.2,0000.0,0001.42,0003.23,0000.94
2022-02-02 14:05:00,,0825.3,5.01,0.00,21.8,21.4,00.0,31.0,23.4,06.2,0000.0,0001.47,0003.31,0000.96
2022-02-02 14:06:00,,0825.3,5.00,0.00,21.9,22.1,00.0,31.0,23.6,06.2,0000.0,0001.54,0003.34,0000.97
2022-02-02 14:07:00,,0825.3,4.99,0.00,22.1,22.9,00.0,31.1,23.9,06.1,0000.0,0001.58,0003.46,0000.97
2022-02-02 14:08:00,,0825.3,5.00,0.00,22.2,23.1,00.0,31.1,24.1,06.1,0000.0,0001.62,0003.62,0000.98
2022-02-02 14:09:00,,0825.3,5.00,0.00,22.2,22.6,00.0,31.1,24.0,06.0,0000.0,0001.56,0003.45,0000.98
2022-02-02 14:10:00,,0825.4,5.00,0.00,22.2,22.2,00.0,31.1,23.9,06.1,0000.0,0001.55,0003.43,0000.98
2022-02-02 14:11:00,,0825.3,5.01,0.00,22.1,21.9,00.0,31.1,23.8,06.1,0000.0,0001.52,0003.37,0000.96
2022-02-02 14:12:00,,0825.3,5.00,0.00,22.0,21.6,00.0,31.1,23.6,06.1,0000.0,0001.50,0003.31,0000.95
2022-02-02 14:13:00,,0825.3,5.00,0.00,22.0,21.3,00.0,31.0,23.5,06.1,0000.0,0001.51,0003.27,0000.97
2022-02-02 14:14:00,,0825.4,5.01,0.00,21.9,21.1,00.0,31.0,23.4,06.1,0000.0,0001.56,0003.05,0000.97
2022-02-02 14:15:00,,0825.3,5.01,0.00,21.8,20.9,00.0,31.0,23.3,06.2,0000.0,0001.60,0003.14,0000.98
2022-02-02 14:16:00,,0825.4,4.99,0.00,21.8,21.2,00.0,31.0,23.3,06.2,0000.0,0001.60,0003.16,0000.98
2022-02-02 14:17:00,,0825.4,5.00,0.00,21.9,22.0,00.0,31.0,23.6,06.1,0000.0,0001.60,0003.26,0000.98
2022-02-02 14:18:00,,0825.4,4.99,0.00,22.0,22.8,00.0,31.0,23.9,06.1,0000.0,0001.56,0003.11,0000.98
2022-02-02 14:19:00,,0825.4,5.01,0.00,22.2,23.1,00.0,31.1,24.1,06.1,0000.0,0001.52,0002.94,0000.98
2022-02-02 14:20:00,,0825.4,5.01,0.00,22.2,22.8,00.0,31.1,24.0,06.1,0000.0,0001.59,0003.28,0000.98
2022-02-02 14:21:00,,0825.3,4.99,0.00,22.2,22.4,00.0,31.1,23.9,06.1,0000.0,0001.64,0003.54,0001.00
2022-02-02 14:22:00,,0825.4,5.00,0.00,22.1,22.1,00.0,31.1,23.8,06.1,0000.0,0001.64,0003.57,0001.01
2022-02-02 14:23:00,,0825.3,4.99,0.00,22.1,21.8,00.0,31.1,23.7,06.1,0000.0,0001.68,0003.77,0001.02
2022-02-02 14:24:00,,0825.4,4.99,0.00,22.0,21.5,00.0,31.1,23.6,06.1,0000.0,0001.67,0003.76,0001.02
2022-02-02 14:25:00,,0825.5,5.01,0.00,21.9,21.3,00.0,31.0,23.5,06.2,0000.0,0001.64,0003.68,0001.01
2022-02-02 14:26:00,,0825.5,4.99,0.00,21.9,21.2,00.0,31.0,23.4,06.2,0000.0,0001.61,0003.41,0001.01
2022-02-02 14:27:00,,0825.5,5.01,0.00,21.9,21.7,00.0,31.0,23.5,06.2,0000.0,0001.59,0004.28,0001.00
2022-02-02 14:28:00,,0825.5,5.00,0.00,22.1,22.5,00.0,31.1,23.8,06.2,0000.0,0001.53,0004.64,0000.99
2022-02-02 14:29:00,,0825.5,5.01,0.00,22.2,23.2,00.0,31.1,24.1,06.2,0000.0,0001.52,0005.12,0001.00
2022-02-02 14:30:00,,0825.6,4.99,0.00,22.3,23.2,00.0,31.2,24.2,06.1,0000.0,0001.53,0005.25,0001.00
2022-02-02 14:31:00,,0825.5,5.00,0.00,22.3,22.8,00.0,31.2,24.2,06.1,0000.0,0001.51,0005.09,0001.01
2022-02-02 14:32:00,,0825.6,4.99,0.00,22.3,22.5,00.0,31.2,24.0,06.1,0000.0,0001.53,0005.00,0001.00
2022-02-02 14:33:00,,0825.6,5.00,0.00,22.3,22.2,00.0,31.2,23.9,06.1,0000.0,0001.53,0004.97,0000.99
2022-02-02 14:34:00,,0825.6,5.01,0.00,22.2,21.9,00.0,31.2,23.9,06.2,0000.0,0001.49,0004.77,0000.98
2022-02-02 14:35:00,,0825.6,4.99,0.00,22.1,21.7,00.0,31.1,23.8,06.2,0000.0,0001.44,0004.65,0000.98
2022-02-02 14:36:00,,0825.5,5.01,0.00,22.1,21.5,00.0,31.1,23.7,06.2,0000.0,0001.37,0004.45,0000.98
2022-02-02 14:37:00,,0825.6,5.00,0.00,22.0,21.4,00.0,31.1,23.6,06.2,0000.0,0001.33,0004.50,0000.98
2022-02-02 14:38:00,,0825.6,4.98,0.00,22.0,21.3,00.0,31.1,23.5,06.2,0000.0,0001.33,0003.40,0000.98
2022-02-02 14:39:00,,0825.6,5.02,0.00,21.9,21.2,00.0,31.1,23.5,06.2,0000.0,0001.34,0002.94,0000.99
2022-02-02 14:40:00,,0825.6,4.99,0.00,22.0,21.8,00.0,31.1,23.7,06.2,0000.0,0001.35,0002.43,0000.98
2022-02-02 14:41:00,,0825.6,4.99,0.00,22.1,22.6,00.0,31.1,24.0,06.2,0000.0,0001.35,0002.29,0000.98
2022-02-02 14:42:00,,0825.6,5.01,0.00,22.3,22.9,00.0,31.2,24.1,06.2,0000.0,0001.31,0002.13,0000.98
2022-02-02 14:43:00,,0825.6,5.00,0.00,22.3,22.7,00.0,31.2,24.1,06.1,0000.0,0001.27,0002.09,0000.97
2022-02-02 14:44:00,,0825.7,5.01,0.00,22.3,22.4,00.0,31.2,24.1,06.1,0000.0,0001.30,0002.20,0000.99
2022-02-02 14:45:00,,0825.6,4.99,0.00,22.3,22.2,00.0,31.2,24.0,06.2,0000.0,0001.32,0002.27,0000.99
2022-02-02 14:46:00,,0825.6,4.99,0.00,22.2,21.9,00.0,31.2,23.9,06.2,0000.0,0001.39,0002.91,0001.00
2022-02-02 14:47:00,,0825.6,5.01,0.00,22.2,21.7,00.0,31.2,23.8,06.2,0000.0,0001.47,0003.64,0001.00
2022-02-02 14:48:00,,0825.6,4.98,0.00,22.1,21.6,00.0,31.1,23.7,06.2,0000.0,0001.49,0003.61,0001.01
2022-02-02 14:49:00,,0825.7,5.01,0.00,22.1,21.4,00.0,31.1,23.7,06.3,0000.0,0001.47,0003.45,0001.01
2022-02-02 14:50:00,,0825.7,4.99,0.00,22.0,21.3,00.0,31.1,23.7,06.3,0000.0,0001.45,0003.40,0001.02
2022-02-02 14:51:00,,0825.7,5.01,0.00,22.1,21.8,00.0,31.1,23.8,06.3,0000.0,0001.45,0003.41,0001.03
2022-02-02 14:52:00,,0825.8,4.99,0.00,22.2,22.6,00.0,31.2,24.0,06.3,0000.0,0001.47,0003.51,0001.04
2022-02-02 14:53:00,,0825.8,4.99,0.00,22.3,23.1,00.0,31.2,24.2,06.2,0000.0,0001.46,0003.44,0001.05
2022-02-02 14:54:00,,0825.9,5.00,0.00,22.4,22.9,00.0,31.2,24.2,06.2,0000.0,0001.47,0003.38,0001.07
2022-02-02 14:55:00,,0825.9,5.00,0.00,22.4,22.5,00.0,31.2,24.2,06.2,0000.0,0001.48,0003.41,0001.07
2022-02-02 14:56:00,,0825.8,5.01,0.00,22.3,22.2,00.0,31.2,24.1,06.2,0000.0,0001.48,0003.49,0001.07
2022-02-02 14:57:00,,0825.8,4.99,0.00,22.3,22.0,00.0,31.2,24.0,06.2,0000.0,0001.49,0003.26,0001.08
2022-02-02 14:58:00,,0825.7,5.02,0.00,22.3,21.7,00.0,31.2,23.9,06.3,0000.0,0001.51,0003.10,0001.09
2022-02-02 14:59:00,,0825.7,4.98,0.00,22.2,21.5,00.0,31.2,23.8,06.3,0000.0,0001.60,0003.43,0001.11
